Вернуться в каталог

NAVSTAR 24

USA 79

АктивенНавигацияMEO
NORAD 21890·PAYLOAD·🇺🇸 United States

Запущен Feb 23, 1992 с Cape Canaveral Space Force Station

Loading…

Ближайшие Пролёты (ближайшие 24 часа)

TLE

СвежийSource: Space-Track

Эпоха: Sep 14, 2026, 06:29 UTC

1 21890U 92009A   26257.27074000  .00000006  00000-0  00000-0 0  9998
2 21890  54.2264 162.9892 0054037  62.4943  42.6171  1.91828536247804

Отслеживайте NAVSTAR 24 в реальном времени с AllMySat

Download on the App Store